Weather History for Athens, GA

Change the Weather History Date:

Friday, February 8, 2013

  Actual Average Record
Temperature  
Mean Temperature 51 °F 46 °F  
Max Temperature 60 °F 57 °F 77 °F (1957)
Min Temperature 41 °F 35 °F 16 °F (1951)
Degree Days  
Heating Degree Days 14 19  
Month to date heating degree days 165 158  
Since 1 July heating degree days 1634 1915  
Growing Degree Days 2 (Base 50)    
Moisture  
Dew Point 42 °F    
Average Humidity 72    
Maximum Humidity 92    
Minimum Humidity 52    
Precipitation  
Precipitation 0.00 in 0.16 in 2.35 in (1903)
Month to date precipitation 0.89 1.25  
Year to date precipitation 5.86 5.30  
Snow  
Snow 0.00 in 0.00 in 0.00 in (2002)
Month to date snowfall 0.0 0.2  
Since 1 July snowfall 0.0 1.7  
Snow Depth -    
Sea Level Pressure  
Sea Level Pressure 30.00 in    
Wind  
Wind Speed 6 mph (NW)    
Max Wind Speed 14 mph    
Max Gust Speed 20 mph    
Visibility 8 miles    
Events      
T = Trace of Precipitation, MM = Missing Value Source: NWS Daily Summary

Daily Weather History Graph

Daily Weather History Graph

Search for Another Location

Airport:

Trip Planner

Search our weather history database for the weather conditions in past years. The results will help you decide how hot, cold, wet, or windy it might be!

Date:

Astronomy

Feb. 08, 2013 Rise Set
Actual Time 7:24 AM EST 6:11 PM EST
Civil Twilight 6:58 AM EST 6:36 PM EST
Nautical Twilight 6:28 AM EST 7:06 PM EST
Astronomical Twilight 5:59 AM EST 7:35 PM EST
Moon 5:49 AM EST (2/8) 4:44 PM EST (2/8)
Length of Visible Light 11h 38m
Length of Day
10h 46m
Waning Crescent, 3% of the Moon is Illuminated
Feb 8
Waning Crescent
Feb 10
New
Feb 17
First Quarter
Feb 25
Full
Mar 4
Last Quarter

Hourly Weather History & Observations

Time (EST) Temp. Windchill Dew Point Humidity Pressure Visibility Wind Dir Wind Speed Gust Speed Precip Events Conditions
12:51 AM 44.1 °F 39.0 °F 42.1 °F 93% 29.95 in 6.0 mi NE 9.2 mph - N/A   Overcast
1:51 AM 44.1 °F 42.5 °F 42.1 °F 93% 29.96 in 6.0 mi North 3.5 mph - N/A   Overcast
2:19 AM 44.6 °F 43.1 °F 42.8 °F 93% 29.95 in 6.0 mi North 3.5 mph - N/A   Overcast
2:39 AM 44.6 °F 43.1 °F 42.8 °F 93% 29.94 in 5.0 mi North 3.5 mph - N/A   Overcast
2:51 AM 44.1 °F 42.5 °F 42.1 °F 93% 29.94 in 5.0 mi North 3.5 mph - N/A   Overcast
3:51 AM 45.0 °F - 42.1 °F 90% 29.95 in 7.0 mi Calm Calm - N/A   Overcast
4:26 AM 44.6 °F 43.1 °F 42.8 °F 93% 29.93 in 6.0 mi North 3.5 mph - N/A   Overcast
4:51 AM 45.0 °F 41.8 °F 42.1 °F 90% 29.94 in 7.0 mi North 5.8 mph - N/A   Overcast
5:51 AM 45.0 °F 43.5 °F 42.1 °F 90% 29.95 in 8.0 mi NNE 3.5 mph - N/A   Overcast
6:51 AM 45.0 °F - 42.1 °F 90% 29.98 in 9.0 mi Calm Calm - N/A   Overcast
7:51 AM 45.0 °F - 43.0 °F 93% 30.01 in 6.0 mi Calm Calm - N/A   Overcast
8:51 AM 46.0 °F - 43.0 °F 89% 30.01 in 6.0 mi Calm Calm - N/A   Overcast
9:51 AM 48.9 °F - 43.0 °F 80% 30.01 in 10.0 mi Calm Calm - N/A   Clear
10:51 AM 52.0 °F - 44.1 °F 74% 30.02 in 10.0 mi WNW 4.6 mph - N/A   Mostly Cloudy
11:51 AM 55.9 °F - 45.0 °F 67% 30.00 in 10.0 mi WSW 4.6 mph - N/A   Partly Cloudy
12:51 PM 57.0 °F - 46.9 °F 69% 29.99 in 10.0 mi WNW 9.2 mph - N/A   Mostly Cloudy
1:51 PM 55.0 °F - 46.0 °F 72% 29.99 in 10.0 mi West 13.8 mph 18.4 mph N/A   Overcast
2:51 PM 57.0 °F - 46.9 °F 69% 29.96 in 10.0 mi West 9.2 mph - N/A   Overcast
3:51 PM 57.0 °F - 46.0 °F 67% 29.97 in 10.0 mi NW 5.8 mph - N/A   Mostly Cloudy
4:35 PM 57.2 °F - 46.4 °F 67% 29.98 in 10.0 mi West 10.4 mph - N/A   Overcast
4:51 PM 57.0 °F - 46.0 °F 67% 29.99 in 10.0 mi West 8.1 mph - N/A   Overcast
5:51 PM 55.0 °F - 45.0 °F 69% 30.01 in 10.0 mi WNW 9.2 mph - N/A   Clear
6:51 PM 51.1 °F - 39.0 °F 63% 30.03 in 10.0 mi WNW 3.5 mph - N/A   Clear
7:51 PM 50.0 °F - 34.0 °F 54% 30.06 in 10.0 mi NW 6.9 mph - N/A   Clear
8:51 PM 48.0 °F - 32.0 °F 54% 30.08 in 10.0 mi NW 8.1 mph - N/A   Clear
9:51 PM 46.0 °F 41.4 °F 32.0 °F 58% 30.09 in 10.0 mi NNW 9.2 mph - N/A   Clear
10:51 PM 44.1 °F 38.1 °F 32.0 °F 63% 30.13 in 10.0 mi NW 11.5 mph - N/A   Clear
11:51 PM 42.1 °F 37.7 °F 32.0 °F 67% 30.14 in 10.0 mi NW 6.9 mph - N/A   Clear